This is the latest recevied weather packets stored in our database for station/object KE7JVX-3. If no packets are shown the sender has not sent any weather packets the latest 1 day(s).
| Time | Temp. | Humidity | Pressure | Rain* | Wind** | Luminosity | Snow |
|---|---|---|---|---|---|---|---|
| 1778051670 | 1.11° C | 52% | 1009 hPa | 0 mm | 4.92 m/s, 290° | - | - |
| 1778051068 | 1.11° C | 52% | 1009 hPa | 0 mm | 4.47 m/s, 299° | - | - |
| 1778050689 | 1.11° C | 54% | 1009.1 hPa | 0 mm | 4.47 m/s, 313° | - | - |
| 1778050468 | 1.11° C | 54% | 1009.1 hPa | 0 mm | 4.47 m/s, 313° | - | - |
| 1778049868 | 1.11° C | 56% | 1009.2 hPa | 0 mm | 2.68 m/s, 313° | - | - |
| 1778049453 | 1.11° C | 56% | 1009.2 hPa | 0 mm | 3.13 m/s, 300° | - | - |
| 1778049268 | 1.11° C | 56% | 1009.2 hPa | 0 mm | 3.13 m/s, 300° | - | - |
| 1778048918 | 1.11° C | 56% | 1009.1 hPa | 0 mm | 3.58 m/s, 302° | - | - |
| 1778048668 | 1.11° C | 56% | 1009.1 hPa | 0 mm | 3.58 m/s, 302° | - | - |
| 1778048254 | 1.11° C | 56% | 1009.2 hPa | 0 mm | 3.13 m/s, 310° | - | - |
| 1778048068 | 1.11° C | 56% | 1009.2 hPa | 0 mm | 3.13 m/s, 310° | - | - |
| 1778047583 | 1.11° C | 56% | 1009 hPa | 0 mm | 4.02 m/s, 298° | - | - |
| 1778047469 | 1.11° C | 56% | 1009 hPa | 0 mm | 4.02 m/s, 298° | - | - |
| 1778046868 | 1.11° C | 56% | 1009 hPa | 0 mm | 4.92 m/s, 303° | - | - |
| 1778046440 | 1.11° C | 56% | 1008.9 hPa | 0 mm | 4.47 m/s, 303° | - | - |
| 1778046268 | 1.11° C | 56% | 1008.9 hPa | 0 mm | 4.47 m/s, 303° | - | - |
| 1778045841 | 1.11° C | 55% | 1008.8 hPa | 0 mm | 4.02 m/s, 300° | - | - |
| 1778045668 | 1.11° C | 55% | 1008.8 hPa | 0 mm | 4.02 m/s, 300° | - | - |
| 1778045068 | 1.11° C | 55% | 1008.8 hPa | 0 mm | 4.47 m/s, 302° | - | - |
| 1778044649 | 1.11° C | 55% | 1008.8 hPa | 0 mm | 4.92 m/s, 304° | - | - |
| 1778044468 | 1.11° C | 55% | 1008.8 hPa | 0 mm | 4.92 m/s, 304° | - | - |
| 1778044091 | 1.11° C | 55% | 1008.6 hPa | 0 mm | 5.36 m/s, 301° | - | - |
| 1778043868 | 1.11° C | 55% | 1008.6 hPa | 0 mm | 5.36 m/s, 301° | - | - |
| 1778043478 | 1.11° C | 56% | 1008.5 hPa | 0 mm | 5.81 m/s, 304° | - | - |
| 1778043268 | 1.11° C | 56% | 1008.5 hPa | 0 mm | 5.81 m/s, 304° | - | - |
* Rain latest hour (hover to see other rain measurements)
** Current wind speed in m/s (hover to see current wind gust speed)